sat.trackr.live / text

‹ back to catalog

JILIN-1 GAOFEN 03D50

NORAD 54690 · 2022-167J

PAYLOAD ACTIVE UNKNOWN

§ Identity

Operator
Country
PRC
Launch date
2022-12-09
Launch site
SEAL
Launch vehicle
Mass (kg)
RCS (m²)

External: N2YO · Heavens-Above · Gunter

§ Orbital elements

Epoch: 2026-05-25T04:06:03.695904Z

Period
93.88 min
Inclination
97.6816°
Eccentricity
0.0005734
Mean motion
15.33950758 rev/d
Perigee alt
460.1 km
Apogee alt
468.0 km
Semi-major
6,842.2 km
B*
3.0381e-4
RAAN
312.0868°
Arg perigee
174.8989°
Mean anomaly
185.2312°
Rev number
19,182

§ Raw data

JILIN-1 GAOFEN 03D501 54690U 22167J   26145.17087611  .00009901  00000+0  30381-3 0  99972 54690  97.6816 312.0868 0005734 174.8989 185.2312 15.33950758191825

JSON: /api/v1/satellites/54690 · /tle

For live sub-satellite position, see the globe view (requires WebGL).

§ Visibility from observer

Set your observer location to see the next 7 days of passes ≥ 10°. The values pass through the URL so the page stays shareable.

No JS? Fill the form by hand. The geolocation button needs JavaScript.